LiveATC.Net - Listen to live air traffic control over the Internet!


ICAO: KBLI  IATA: BLI   Airport: Bellingham International Airport
City: Bellingham   State/Province: Washington
Country: United States   Continent: North America
KBLI METAR Weather: KBLI 281355Z 17009G18KT 10SM -RA FEW034 OVC055 12/11 A2987 RMK AO2 P0000 T01170106
KBLI Flight Activity (FlightAware)
KBLI Airport Info   (iFlightPlanner)
KBLI VFR Sectional Chart   (iFlightPlanner) 
KBLI IFR Low Chart   (iFlightPlanner) 

KBLI Tower
Feed Status: DOWN
Last heard on: 2021-09-17 21:28:39 (10 days 17 hours 10 minutes ago)
Archive Access: KBLI Tower
FacilityFrequency
Bellingham Tower124.900

NOTICE

Unauthorized use prohibited. See LiveATC.net Terms of Service


Airport/ARTCC Code
Frequency Search
(e.g., 124.400, 128.75)
Site-wide search
 


Browse Feeds
Top 50 Feeds
HF Oceanic Feeds
Coverage Map
Bad Weather Areas

LiveATC FAQ
Offer LiveATC feed
Contact LiveATC.net
Press Inquiries

LiveATC on iPhone
LiveATC on Android

Windows Phone
Windows 8/10

LiveATC Mobile
(Mobile browser)

ATC Audio Archives
Interesting Recordings

LiveATC Forums


Home Page
About LiveATC.net
Make a Donation
Terms of Use
Privacy Policy

Canadian Air Freqs

AIRMETs/SIGMETs

FAA Airport Status
NAS Status
Arrival Demand


Server Software By:
Icecast.org
Liquidsoap